Thunderstorms From: 26-05-2018 09:00 Until: 27-05-2018 05:00 warning for: Thunderstorms Level: Yellow info button

Although rather usual in this region, locally or potentially dangerous phenomena are expected. (such as local winds, summer thunderstorms, rising streams or high waves) Be aware and pay attention to the latest weather updates, especially if you carry out activities exposed to weather or close to a stream or shoreline. 


Meteo18 Weather Cam more information Meteo18 Weather Cam


warning for Thunderstorms more information blitzortung!


Rain radar more information rain snow radar


Visit our other weather sites:

Template documentation
and downloads

And another site



Weather Underground History page Text

Daily Summary for January 28, 2018 Units:  Metric    English   Both
« Previous Day
Next Day »
Daily Weekly Monthly Yearly Custom
  High: Low: Average:
Temperature: -17.8 °C -17.8 °C -15.7 °C
Dew Point: -17.8 °C -18 °C -15.8 °C
Humidity: Humidity % 97 % 98 %
Wind Speed: 0 km/h 0 km/h 8.2 km/h
Wind Gust: 0 km/h - -
Wind:- - SW
Pressure: 0 hPa 35116.2 hPa -
Precipitation: 0 mm    
Historical Graphs
 
 
Tabular Data for January 28, 2018
Time Temperature Dew Point Pressure Wind Wind Speed Wind Gust Humidity Rainfall Rate (Hourly)
-17.8 °C -17.8 °C 0 hPa Calm     Humidity % 0 mm
00:02 -17.6 °C -17.8 °C 35129.8 hPa SSW 7.6 km/h 10.3 km/h 98 % 0 mm
00:08 -17.7 °C -17.8 °C 35129.8 hPa WSW 5.1 km/h 7.7 km/h 98 % 0 mm
00:14 -17.7 °C -17.9 °C 35116.2 hPa SW 5.1 km/h 12.9 km/h 97 % 0 mm
00:21 -17.7 °C -17.9 °C 35116.2 hPa WSW 2.3 km/h 10.3 km/h 97 % 0 mm
00:27 -17.7 °C -17.8 °C 35116.2 hPa WSW 10.3 km/h 12.9 km/h 98 % 0 mm
00:33 -17.7 °C -17.8 °C 35129.8 hPa SW 5.1 km/h 10.3 km/h 98 % 0 mm
00:39 -17.7 °C -17.9 °C 35129.8 hPa SW 5.1 km/h 10.3 km/h 98 % 0 mm
00:45 -17.7 °C -17.8 °C 35129.8 hPa SSW 5.1 km/h 10.3 km/h 98 % 0 mm
00:51 -17.7 °C -17.8 °C 35116.2 hPa SSW 5.1 km/h 10.3 km/h 98 % 0 mm
00:57 -17.7 °C -17.8 °C 35116.2 hPa SW 2.3 km/h 10.3 km/h 98 % 0 mm
01:03 -17.7 °C -17.8 °C 35129.8 hPa SW 5.1 km/h 10.3 km/h 98 % 0 mm
01:09 -17.6 °C -17.8 °C 35129.8 hPa SSW 10.3 km/h 18.2 km/h 98 % 0 mm
01:15 -17.7 °C -17.9 °C 35129.8 hPa SSW 10.3 km/h 15.6 km/h 98 % 0 mm
01:21 -17.7 °C -17.9 °C 35129.8 hPa SSW 7.6 km/h 12.9 km/h 98 % 0 mm
01:27 -17.7 °C -17.9 °C 35116.2 hPa SSW 7.6 km/h 12.9 km/h 98 % 0 mm
01:33 -17.8 °C -17.9 °C 35116.2 hPa SW 7.6 km/h 12.9 km/h 98 % 0 mm
01:39 -17.8 °C -18 °C 35116.2 hPa SW 5.1 km/h 10.3 km/h 98 % 0 mm
01:45 -17.8 °C -17.9 °C 35116.2 hPa SSW 2.3 km/h 12.9 km/h 98 % 0 mm
01:51 -17.7 °C -17.9 °C 35116.2 hPa SSE 7.6 km/h 10.3 km/h 98 % 0 mm
01:57 -17.7 °C -17.9 °C 35116.2 hPa SSW 10.3 km/h 10.3 km/h 98 % 0 mm
02:03 -17.7 °C -17.9 °C 35116.2 hPa SSW 10.3 km/h 10.3 km/h 98 % 0 mm
02:09 -17.7 °C -17.9 °C 35116.2 hPa SW 7.6 km/h 12.9 km/h 98 % 0 mm
02:15 -17.7 °C -17.8 °C 35116.2 hPa SSW 2.3 km/h 12.9 km/h 98 % 0 mm
02:21 -17.7 °C -17.8 °C 35129.8 hPa SSW 2.3 km/h 7.7 km/h 98 % 0 mm
02:27 -17.6 °C -17.8 °C 35129.8 hPa SSW 2.3 km/h 10.3 km/h 98 % 0 mm
02:33 -17.6 °C -17.8 °C 35129.8 hPa SSW 10.3 km/h 10.3 km/h 98 % 0 mm
02:39 -17.6 °C -17.8 °C 35116.2 hPa South 10.3 km/h 12.9 km/h 98 % 0 mm
02:45 -17.6 °C -17.8 °C 35129.8 hPa SSW 7.6 km/h 7.7 km/h 98 % 0 mm
02:51 -17.6 °C -17.8 °C 35129.8 hPa SW 2.3 km/h 7.7 km/h 98 % 0 mm
02:57 -17.6 °C -17.8 °C 35129.8 hPa SW 10.3 km/h 12.9 km/h 98 % 0 mm
03:03 -17.6 °C -17.8 °C 35139.9 hPa SW 5.1 km/h 10.3 km/h 98 % 0 mm
03:09 -17.7 °C -17.8 °C 35139.9 hPa SSW 2.3 km/h 7.7 km/h 98 % 0 mm
03:15 -17.7 °C -17.8 °C 35139.9 hPa SSW 7.6 km/h 10.3 km/h 98 % 0 mm
03:21 -17.7 °C -17.8 °C 35139.9 hPa SW 7.6 km/h 7.7 km/h 98 % 0 mm
03:27 -17.6 °C -17.8 °C 35139.9 hPa SW 2.3 km/h 5.1 km/h 98 % 0 mm
03:33 -17.6 °C -17.8 °C 35139.9 hPa SSW 7.6 km/h 12.9 km/h 98 % 0 mm
03:39 -17.7 °C -17.8 °C 35139.9 hPa SSW 12.7 km/h 18.2 km/h 98 % 0 mm
03:45 -17.7 °C -17.8 °C 35139.9 hPa SSW 7.6 km/h 15.6 km/h 98 % 0 mm
03:51 -17.7 °C -17.8 °C 35139.9 hPa SW 12.7 km/h 18.2 km/h 98 % 0 mm
03:57 -17.7 °C -17.8 °C 35139.9 hPa SSW 10.3 km/h 15.6 km/h 98 % 0 mm
04:03 -17.7 °C -17.9 °C 35129.8 hPa SSW 12.7 km/h 15.6 km/h 98 % 0 mm
04:09 -17.7 °C -17.8 °C 35129.8 hPa SW 15.6 km/h 18.2 km/h 98 % 0 mm
04:15 -17.7 °C -17.8 °C 35129.8 hPa SSW 12.7 km/h 12.9 km/h 98 % 0 mm
04:21 -17.7 °C -17.8 °C 35129.8 hPa SW 7.6 km/h 15.6 km/h 98 % 0 mm
04:27 -17.6 °C -17.8 °C 35129.8 hPa SW 5.1 km/h 10.3 km/h 98 % 0 mm
04:33 -17.6 °C -17.8 °C 35139.9 hPa SSW 7.6 km/h 10.3 km/h 98 % 0 mm
04:39 -17.7 °C -17.8 °C 35139.9 hPa SSW 7.6 km/h 12.9 km/h 98 % 0 mm
04:45 -17.6 °C -17.8 °C 35139.9 hPa SSW 10.3 km/h 15.6 km/h 98 % 0 mm
04:51 -17.7 °C -17.8 °C 35139.9 hPa SSW 12.7 km/h 20.8 km/h 98 % 0 mm
04:57 -17.6 °C -17.8 °C 35139.9 hPa SSW 17.9 km/h 20.8 km/h 98 % 0 mm
05:03 -17.6 °C -17.8 °C 35139.9 hPa SSW 17.9 km/h 18.2 km/h 98 % 0 mm
05:09 -17.6 °C -17.8 °C 35139.9 hPa SSW 10.3 km/h 15.6 km/h 98 % 0 mm
05:15 -17.6 °C -17.8 °C 35139.9 hPa SSW 12.7 km/h 18.2 km/h 98 % 0 mm
05:21 -17.6 °C -17.7 °C 35139.9 hPa SW 10.3 km/h 15.6 km/h 98 % 0 mm
05:27 -17.6 °C -17.7 °C 35139.9 hPa SSW 12.7 km/h 15.6 km/h 98 % 0 mm
05:33 -17.6 °C -17.7 °C 35139.9 hPa SW 17.9 km/h 18.2 km/h 98 % 0 mm
05:39 -17.6 °C -17.7 °C 35139.9 hPa SW 10.3 km/h 18.2 km/h 98 % 0 mm
05:45 -17.6 °C -17.7 °C 35150.1 hPa SSW 15.6 km/h 18.2 km/h 98 % 0 mm
05:51 -17.5 °C -17.7 °C 35150.1 hPa SSW 12.7 km/h 15.6 km/h 98 % 0 mm
05:57 -17.5 °C -17.7 °C 35150.1 hPa SW 15.6 km/h 15.6 km/h 98 % 0 mm
06:03 -17.4 °C -17.6 °C 35150.1 hPa SW 12.7 km/h 12.9 km/h 98 % 0 mm
06:09 -17.4 °C -17.6 °C 35150.1 hPa SSW 5.1 km/h 10.3 km/h 98 % 0 mm
06:15 -17.4 °C -17.6 °C 35150.1 hPa SSW 17.9 km/h 18.2 km/h 98 % 0 mm
06:21 -17.4 °C -17.6 °C 35150.1 hPa SSW 17.9 km/h 18.2 km/h 98 % 0 mm
06:27 -17.4 °C -17.6 °C 35150.1 hPa SSW 7.6 km/h 18.2 km/h 98 % 0 mm
06:33 -17.4 °C -17.6 °C 35150.1 hPa SSW 10.3 km/h 20.8 km/h 98 % 0 mm
06:39 -17.4 °C -17.6 °C 35150.1 hPa SSW 12.7 km/h 20.8 km/h 98 % 0 mm
06:45 -17.3 °C -17.5 °C 35150.1 hPa SW 12.7 km/h 23.3 km/h 98 % 0 mm
06:51 -17.3 °C -17.5 °C 35150.1 hPa SSW 12.7 km/h 20.8 km/h 98 % 0 mm
06:57 -17.3 °C -17.4 °C 35150.1 hPa SSW 10.3 km/h 15.6 km/h 98 % 0 mm
07:03 -17.3 °C -17.4 °C 35150.1 hPa SSW 7.6 km/h 15.6 km/h 98 % 0 mm
07:09 -17.3 °C -17.4 °C 35163.6 hPa SSW 7.6 km/h 12.9 km/h 98 % 0 mm
07:15 -17.3 °C -17.4 °C 35163.6 hPa SW 12.7 km/h 12.9 km/h 98 % 0 mm
07:21 -17.2 °C -17.4 °C 35163.6 hPa SSW 10.3 km/h 10.3 km/h 98 % 0 mm
07:27 -17.2 °C -17.3 °C 35163.6 hPa SSW 5.1 km/h 10.3 km/h 98 % 0 mm
07:33 -17.2 °C -17.3 °C 35163.6 hPa SSW 12.7 km/h 15.6 km/h 98 % 0 mm
07:39 -17.1 °C -17.3 °C 35163.6 hPa SSW 7.6 km/h 10.3 km/h 98 % 0 mm
07:45 -17.1 °C -17.3 °C 35163.6 hPa SSW 5.1 km/h 15.6 km/h 98 % 0 mm
07:51 -17.1 °C -17.3 °C 35163.6 hPa SSW 7.6 km/h 15.6 km/h 98 % 0 mm
07:57 -17.1 °C -17.3 °C 35163.6 hPa SSW 7.6 km/h 12.9 km/h 98 % 0 mm
08:03 -17.1 °C -17.2 °C 35163.6 hPa SW 5.1 km/h 7.7 km/h 98 % 0 mm
08:09 -17.1 °C -17.2 °C 35163.6 hPa SW 7.6 km/h 10.3 km/h 98 % 0 mm
08:15 -17.1 °C -17.2 °C 35173.8 hPa SSW 7.6 km/h 10.3 km/h 98 % 0 mm
08:21 -17.1 °C -17.2 °C 35173.8 hPa SSW 7.6 km/h 7.7 km/h 98 % 0 mm
08:27 -17 °C -17.2 °C 35173.8 hPa SSW 7.6 km/h 12.9 km/h 98 % 0 mm
08:33 -17 °C -17.2 °C 35173.8 hPa SW 7.6 km/h 12.9 km/h 98 % 0 mm
08:39 -17 °C -17.2 °C 35173.8 hPa SSW 12.7 km/h 18.2 km/h 98 % 0 mm
08:45 -16.9 °C -17.1 °C 35173.8 hPa SSW 10.3 km/h 15.6 km/h 98 % 0 mm
08:51 -16.9 °C -17.1 °C 35173.8 hPa SW 12.7 km/h 18.2 km/h 98 % 0 mm
08:57 -16.9 °C -17.1 °C 35187.3 hPa SSW 10.3 km/h 15.6 km/h 98 % 0 mm
09:03 -16.8 °C -17 °C 35187.3 hPa SW 12.7 km/h 15.6 km/h 98 % 0 mm
09:09 -16.8 °C -16.9 °C 35187.3 hPa SW 15.6 km/h 15.6 km/h 98 % 0 mm
09:15 -16.8 °C -16.9 °C 35187.3 hPa SSW 7.6 km/h 12.9 km/h 98 % 0 mm
09:21 -16.7 °C -16.9 °C 35197.5 hPa SW 12.7 km/h 18.2 km/h 98 % 0 mm
09:27 -16.7 °C -16.9 °C 35197.5 hPa SSW 10.3 km/h 18.2 km/h 98 % 0 mm
09:33 -16.7 °C -16.8 °C 35197.5 hPa SSW 2.3 km/h 10.3 km/h 98 % 0 mm
09:39 -16.6 °C -16.8 °C 35197.5 hPa SSW 12.7 km/h 15.6 km/h 98 % 0 mm
09:46 -16.6 °C -16.7 °C 35197.5 hPa SSW 7.6 km/h 15.6 km/h 98 % 0 mm
09:51 -16.6 °C -16.7 °C 35197.5 hPa SW 10.3 km/h 23.3 km/h 98 % 0 mm
09:57 -16.4 °C -16.6 °C 35197.5 hPa SSW 15.6 km/h 20.8 km/h 98 % 0 mm
10:03 -16.4 °C -16.6 °C 35197.5 hPa SSW 5.1 km/h 18.2 km/h 98 % 0 mm
10:09 -16.4 °C -16.6 °C 35197.5 hPa SW 10.3 km/h 18.2 km/h 98 % 0 mm
10:15 -16.3 °C -16.5 °C 35197.5 hPa SSW 15.6 km/h 15.6 km/h 98 % 0 mm
10:21 -16.3 °C -16.4 °C 35197.5 hPa SW 17.9 km/h 25.9 km/h 98 % 0 mm
10:27 -16.2 °C -16.3 °C 35197.5 hPa SSW 5.1 km/h 18.2 km/h 98 % 0 mm
10:33 -16.2 °C -16.3 °C 35197.5 hPa SW 10.3 km/h 15.6 km/h 98 % 0 mm
10:39 -16.2 °C -16.3 °C 35197.5 hPa SW 23 km/h 25.9 km/h 98 % 0 mm
10:46 -16.1 °C -16.3 °C 35207.6 hPa SW 10.3 km/h 20.8 km/h 98 % 0 mm
10:52 -16.1 °C -16.2 °C 35207.6 hPa WSW 10.3 km/h 18.2 km/h 98 % 0 mm
10:58 -16.1 °C -16.2 °C 35207.6 hPa South 2.3 km/h 15.6 km/h 98 % 0 mm
11:04 -16 °C -16.2 °C 35207.6 hPa SSW 12.7 km/h 20.8 km/h 98 % 0 mm
11:10 -15.9 °C -16.1 °C 35197.5 hPa SW 12.7 km/h 25.9 km/h 98 % 0 mm
11:16 -15.9 °C -16.1 °C 35207.6 hPa SSW 7.6 km/h 23.3 km/h 98 % 0 mm
11:22 -15.8 °C -16 °C 35207.6 hPa SSW 10.3 km/h 20.8 km/h 98 % 0 mm
11:28 -15.8 °C -15.9 °C 35207.6 hPa SW 10.3 km/h 20.8 km/h 98 % 0 mm
11:34 -15.7 °C -15.9 °C 35207.6 hPa SW 15.6 km/h 20.8 km/h 98 % 0 mm
11:40 -15.7 °C -15.9 °C 35207.6 hPa SW 5.1 km/h 18.2 km/h 98 % 0 mm
11:46 -15.6 °C -15.8 °C 35207.6 hPa SW 15.6 km/h 20.8 km/h 98 % 0 mm
11:52 -15.6 °C -15.8 °C 35207.6 hPa SSW 10.3 km/h 18.2 km/h 98 % 0 mm
11:58 -15.5 °C -15.7 °C 35207.6 hPa SW 12.7 km/h 18.2 km/h 98 % 0 mm
12:04 -15.5 °C -15.7 °C 35207.6 hPa SSW 12.7 km/h 23.3 km/h 98 % 0 mm
12:10 -15.4 °C -15.6 °C 35207.6 hPa SW 12.7 km/h 23.3 km/h 98 % 0 mm
12:16 -15.4 °C -15.6 °C 35207.6 hPa SW 15.6 km/h 25.9 km/h 98 % 0 mm
12:22 -15.4 °C -15.6 °C 35197.5 hPa SSW 20.9 km/h 28.5 km/h 98 % 0 mm
12:28 -15.3 °C -15.5 °C 35197.5 hPa SSW 20.9 km/h 20.9 km/h 98 % 0 mm
12:34 -15.3 °C -15.5 °C 35197.5 hPa SSW 15.6 km/h 25.9 km/h 98 % 0 mm
12:40 -15.2 °C -15.4 °C 35197.5 hPa SSW 15.6 km/h 20.8 km/h 98 % 0 mm
12:46 -15.2 °C -15.4 °C 35197.5 hPa SW 12.7 km/h 20.8 km/h 98 % 0 mm
12:52 -15.2 °C -15.3 °C 35197.5 hPa SSW 10.3 km/h 12.9 km/h 98 % 0 mm
12:58 -15.1 °C -15.3 °C 35197.5 hPa SW 12.7 km/h 20.8 km/h 98 % 0 mm
13:04 -15.1 °C -15.2 °C 35187.3 hPa SW 15.6 km/h 18.2 km/h 98 % 0 mm
13:10 -14.9 °C -15.1 °C 35187.3 hPa SW 10.3 km/h 15.6 km/h 98 % 0 mm
13:16 -14.9 °C -15.1 °C 35187.3 hPa SSW 7.6 km/h 15.6 km/h 98 % 0 mm
13:22 -14.8 °C -15 °C 35187.3 hPa WSW 15.6 km/h 20.8 km/h 98 % 0 mm
13:28 -14.8 °C -14.9 °C 35187.3 hPa SW 12.7 km/h 23.3 km/h 98 % 0 mm
13:34 -14.7 °C -14.9 °C 35187.3 hPa SW 10.3 km/h 20.8 km/h 98 % 0 mm
13:40 -14.7 °C -14.8 °C 35187.3 hPa SW 12.7 km/h 15.6 km/h 98 % 0 mm
13:46 -14.6 °C -14.8 °C 35187.3 hPa WSW 10.3 km/h 12.9 km/h 98 % 0 mm
13:52 -14.6 °C -14.7 °C 35187.3 hPa SW 15.6 km/h 18.2 km/h 98 % 0 mm
13:58 -14.6 °C -14.7 °C 35187.3 hPa SW 7.6 km/h 18.2 km/h 98 % 0 mm
14:04 -14.5 °C -14.7 °C 35187.3 hPa WSW 5.1 km/h 7.7 km/h 98 % 0 mm
14:10 -14.5 °C -14.7 °C 35187.3 hPa SW 10.3 km/h 12.9 km/h 98 % 0 mm
14:16 -14.4 °C -14.6 °C 35187.3 hPa WSW 10.3 km/h 12.9 km/h 98 % 0 mm
14:22 -14.4 °C -14.6 °C 35187.3 hPa WSW 2.3 km/h 2.6 km/h 98 % 0 mm
14:28 -14.3 °C -14.5 °C 35187.3 hPa SW 2.3 km/h 7.7 km/h 98 % 0 mm
14:34 -14.3 °C -14.5 °C 35187.3 hPa SW 5.1 km/h 10.3 km/h 98 % 0 mm
14:40 -14.3 °C -14.5 °C 35173.8 hPa SW 2.3 km/h 7.7 km/h 98 % 0 mm
14:46 -14.3 °C -14.5 °C 35173.8 hPa SW 5.1 km/h 7.7 km/h 98 % 0 mm
14:52 -14.3 °C -14.4 °C 35173.8 hPa WSW 5.1 km/h 15.6 km/h 98 % 0 mm
14:58 -14.3 °C -14.4 °C 35173.8 hPa WSW 2.3 km/h 10.3 km/h 98 % 0 mm
15:04 -14.3 °C -14.4 °C 35173.8 hPa SW 7.6 km/h 10.3 km/h 98 % 0 mm
15:10 -14.2 °C -14.4 °C 35173.8 hPa Calm   7.7 km/h 98 % 0 mm
15:16 -14.2 °C -14.3 °C 35173.8 hPa WSW 2.3 km/h 10.3 km/h 98 % 0 mm
15:22 -14.1 °C -14.3 °C 35173.8 hPa SW 2.3 km/h 5.1 km/h 98 % 0 mm
15:28 -14.1 °C -14.3 °C 35173.8 hPa SW 7.6 km/h 10.3 km/h 98 % 0 mm
15:34 -14.1 °C -14.3 °C 35173.8 hPa WSW 10.3 km/h 12.9 km/h 98 % 0 mm
15:40 -14.1 °C -14.3 °C 35173.8 hPa SW 7.6 km/h 12.9 km/h 98 % 0 mm
15:46 -14.1 °C -14.3 °C 35173.8 hPa SW 10.3 km/h 12.9 km/h 98 % 0 mm
15:52 -14.1 °C -14.2 °C 35173.8 hPa WSW 5.1 km/h 10.3 km/h 98 % 0 mm
15:58 -14.1 °C -14.2 °C 35173.8 hPa SW 12.7 km/h 12.9 km/h 98 % 0 mm
16:04 -14 °C -14.2 °C 35163.6 hPa WSW 2.3 km/h 12.9 km/h 98 % 0 mm
16:10 -14 °C -14.2 °C 35173.8 hPa SW 5.1 km/h 7.7 km/h 98 % 0 mm
16:16 -13.9 °C -14.1 °C 35173.8 hPa WSW 2.3 km/h 5.1 km/h 98 % 0 mm
16:22 -13.9 °C -14.1 °C 35163.6 hPa WSW 15.6 km/h 15.6 km/h 98 % 0 mm
16:28 -13.9 °C -14.1 °C 35163.6 hPa WSW 10.3 km/h 12.9 km/h 98 % 0 mm
16:34 -13.9 °C -14.1 °C 35163.6 hPa SW 2.3 km/h 10.3 km/h 98 % 0 mm
16:40 -13.9 °C -14.1 °C 35163.6 hPa SW 5.1 km/h 7.7 km/h 98 % 0 mm
16:46 -13.8 °C -14 °C 35163.6 hPa South 5.1 km/h 7.7 km/h 98 % 0 mm
16:52 -13.8 °C -14 °C 35173.8 hPa Calm   10.3 km/h 98 % 0 mm
16:58 -13.8 °C -14 °C 35173.8 hPa SW 2.3 km/h 7.7 km/h 98 % 0 mm
17:04 -13.8 °C -14 °C 35173.8 hPa SW 5.1 km/h 12.9 km/h 98 % 0 mm
17:10 -13.8 °C -14 °C 35173.8 hPa WSW 12.7 km/h 15.6 km/h 98 % 0 mm
17:16 -13.8 °C -14 °C 35173.8 hPa SW 2.3 km/h 10.3 km/h 98 % 0 mm
17:22 -13.8 °C -14 °C 35173.8 hPa SW 2.3 km/h 10.3 km/h 98 % 0 mm
17:28 -13.8 °C -14 °C 35173.8 hPa Calm   7.7 km/h 98 % 0 mm
17:34 -13.8 °C -14 °C 35173.8 hPa SW 7.6 km/h 10.3 km/h 98 % 0 mm
17:40 -13.8 °C -14 °C 35173.8 hPa Calm   12.9 km/h 98 % 0 mm
17:46 -13.8 °C -14 °C 35173.8 hPa WSW 2.3 km/h 10.3 km/h 98 % 0 mm
17:52 -13.8 °C -14 °C 35173.8 hPa SW 7.6 km/h 7.7 km/h 98 % 0 mm
17:58 -13.8 °C -14 °C 35173.8 hPa Calm   5.1 km/h 98 % 0 mm
18:04 -13.8 °C -14 °C 35173.8 hPa West 2.3 km/h 5.1 km/h 98 % 0 mm
18:11 -13.8 °C -14 °C 35173.8 hPa WSW 2.3 km/h 7.7 km/h 98 % 0 mm
18:17 -13.8 °C -14 °C 35187.3 hPa WSW 2.3 km/h 5.1 km/h 98 % 0 mm
18:23 -13.8 °C -13.9 °C 35187.3 hPa SW 2.3 km/h 5.1 km/h 98 % 0 mm
18:29 -13.8 °C -13.9 °C 35187.3 hPa Calm   5.1 km/h 98 % 0 mm
18:35 -13.8 °C -13.9 °C 35173.8 hPa SSW 2.3 km/h 7.7 km/h 98 % 0 mm
18:41 -13.8 °C -13.9 °C 35187.3 hPa WSW 2.3 km/h 7.7 km/h 98 % 0 mm
18:47 -13.8 °C -13.9 °C 35187.3 hPa SW 2.3 km/h 5.1 km/h 98 % 0 mm
18:53 -13.8 °C -13.9 °C 35187.3 hPa SW 2.3 km/h 5.1 km/h 98 % 0 mm
18:59 -13.8 °C -13.9 °C 35187.3 hPa SW 2.3 km/h 2.6 km/h 98 % 0 mm
19:05 -13.8 °C -13.9 °C 35187.3 hPa SSW 5.1 km/h 5.1 km/h 98 % 0 mm
19:11 -13.8 °C -13.9 °C 35187.3 hPa SW 5.1 km/h 5.1 km/h 98 % 0 mm
19:17 -13.8 °C -13.9 °C 35187.3 hPa SSW 5.1 km/h 7.7 km/h 98 % 0 mm
19:23 -13.8 °C -13.9 °C 35187.3 hPa SW 2.3 km/h 7.7 km/h 98 % 0 mm
19:29 -13.8 °C -13.9 °C 35187.3 hPa SW 5.1 km/h 5.1 km/h 98 % 0 mm
19:35 -13.8 °C -13.9 °C 35187.3 hPa SW 2.3 km/h 7.7 km/h 98 % 0 mm
19:41 -13.8 °C -13.9 °C 35187.3 hPa West 2.3 km/h 5.1 km/h 98 % 0 mm
19:47 -13.8 °C -13.9 °C 35187.3 hPa SW 5.1 km/h 7.7 km/h 98 % 0 mm
19:53 -13.8 °C -13.9 °C 35187.3 hPa WSW 5.1 km/h 10.3 km/h 98 % 0 mm
19:59 -13.8 °C -13.9 °C 35187.3 hPa SW 5.1 km/h 10.3 km/h 98 % 0 mm
20:05 -13.8 °C -13.9 °C 35187.3 hPa WSW 2.3 km/h 10.3 km/h 98 % 0 mm
20:11 -13.8 °C -13.9 °C 35187.3 hPa WSW 5.1 km/h 5.1 km/h 98 % 0 mm
20:17 -13.8 °C -13.9 °C 35187.3 hPa SW 5.1 km/h 10.3 km/h 98 % 0 mm
20:23 -13.8 °C -13.9 °C 35187.3 hPa WSW 5.1 km/h 10.3 km/h 98 % 0 mm
20:29 -13.8 °C -13.9 °C 35187.3 hPa SW 2.3 km/h 12.9 km/h 98 % 0 mm
20:35 -13.8 °C -13.9 °C 35187.3 hPa WSW 5.1 km/h 18.2 km/h 98 % 0 mm
20:41 -13.8 °C -13.9 °C 35187.3 hPa WSW 2.3 km/h 12.9 km/h 98 % 0 mm
20:47 -13.8 °C -13.9 °C 35187.3 hPa WSW 5.1 km/h 10.3 km/h 98 % 0 mm
20:53 -13.8 °C -13.9 °C 35187.3 hPa Calm   7.7 km/h 98 % 0 mm
20:59 -13.8 °C -13.9 °C 35187.3 hPa WSW 7.6 km/h 15.6 km/h 98 % 0 mm
21:05 -13.8 °C -13.9 °C 35187.3 hPa West 5.1 km/h 10.3 km/h 98 % 0 mm
21:11 -13.8 °C -13.9 °C 35187.3 hPa WSW 5.1 km/h 10.3 km/h 98 % 0 mm
21:17 -13.8 °C -13.9 °C 35187.3 hPa SW 7.6 km/h 10.3 km/h 98 % 0 mm
21:23 -13.8 °C -13.9 °C 35187.3 hPa SW 10.3 km/h 15.6 km/h 98 % 0 mm
21:29 -13.8 °C -13.9 °C 35197.5 hPa WSW 5.1 km/h 12.9 km/h 98 % 0 mm
21:35 -13.8 °C -13.9 °C 35187.3 hPa WSW 12.7 km/h 15.6 km/h 98 % 0 mm
21:41 -13.8 °C -13.9 °C 35187.3 hPa SW 10.3 km/h 20.8 km/h 98 % 0 mm
21:47 -13.8 °C -13.9 °C 35187.3 hPa West 7.6 km/h 12.9 km/h 98 % 0 mm
21:55 -13.8 °C -13.9 °C 35187.3 hPa South 7.6 km/h 18.2 km/h 98 % 0 mm
22:01 -13.8 °C -13.9 °C 35187.3 hPa SW 7.6 km/h 18.2 km/h 98 % 0 mm
22:07 -13.8 °C -13.9 °C 35187.3 hPa WSW 15.6 km/h 18.2 km/h 98 % 0 mm
22:13 -13.8 °C -13.9 °C 35173.8 hPa WSW 7.6 km/h 18.2 km/h 98 % 0 mm
22:19 -13.8 °C -13.9 °C 35173.8 hPa WSW 7.6 km/h 12.9 km/h 98 % 0 mm
22:25 -13.8 °C -13.9 °C 35173.8 hPa SSW 7.6 km/h 12.9 km/h 98 % 0 mm
22:31 -13.8 °C -13.9 °C 35173.8 hPa SSW 7.6 km/h 15.6 km/h 98 % 0 mm
22:37 -13.8 °C -13.9 °C 35173.8 hPa SW 17.9 km/h 18.2 km/h 98 % 0 mm
22:43 -13.8 °C -13.9 °C 35173.8 hPa SW 5.1 km/h 10.3 km/h 98 % 0 mm
22:49 -13.8 °C -13.9 °C 35173.8 hPa WSW 10.3 km/h 12.9 km/h 98 % 0 mm
22:55 -13.8 °C -13.9 °C 35173.8 hPa WSW 7.6 km/h 10.3 km/h 98 % 0 mm
23:01 -13.8 °C -13.9 °C 35173.8 hPa WSW 5.1 km/h 12.9 km/h 98 % 0 mm
23:08 -13.8 °C -13.9 °C 35173.8 hPa SW 7.6 km/h 18.2 km/h 98 % 0 mm
23:13 -13.8 °C -13.9 °C 35173.8 hPa SW 5.1 km/h 12.9 km/h 98 % 0 mm
23:19 -13.8 °C -13.9 °C 35173.8 hPa SW 17.9 km/h 18.2 km/h 98 % 0 mm
23:25 -13.8 °C -13.9 °C 35173.8 hPa SW 12.7 km/h 12.9 km/h 98 % 0 mm
23:32 -13.8 °C -13.9 °C 35173.8 hPa SW 7.6 km/h 12.9 km/h 98 % 0 mm
23:37 -13.8 °C -13.9 °C 35173.8 hPa SW 5.1 km/h 7.7 km/h 98 % 0 mm
23:43 -13.8 °C -13.9 °C 35163.6 hPa SW 2.3 km/h 12.9 km/h 98 % 0 mm
23:49 -13.8 °C -13.9 °C 35163.6 hPa SW 5.1 km/h 12.9 km/h 98 % 0 mm
23:56 -13.8 °C -13.9 °C 35163.6 hPa West 7.6 km/h 23.3 km/h 98 % 0 mm
Meteo18
Compliments of Weather Underground - 4 mb

Script developed by  Jim McMurry - jmcmurry@mwt.net Adapted for the template by  Wim van der Kuil - Leuven-Template.eu

You find our weather info also at:

European Weather Network

Weather Underground

Equipment we use:

Weather-station
Davis Vue

Weather-program
Meteobridge

Weather-server
Raspberry PI 2 B+

Provider
1 and 1

Davis Vue

Meteobridge

Raspberry PI 2 B+

1 and 1